TimePDT,TemperatureF,Dew PointF,Humidity,Sea Level PressureIn,VisibilityMPH,Wind Direction,Wind SpeedMPH,Gust SpeedMPH,PrecipitationIn,Events,Conditions,WindDirDegrees,DateUTC
12:58 AM,64.9,5.0,9,30.28,10.0,North,11.5,-,N/A,,Clear,10,2014-03-16 07:58:00
1:58 AM,60.6,6.3,12,30.30,10.0,NE,5.8,-,N/A,,Clear,50,2014-03-16 08:58:00
2:58 AM,60.8,7.7,12,30.29,10.0,NNW,3.5,-,N/A,,Clear,340,2014-03-16 09:58:00
3:58 AM,56.1,12.0,17,30.30,10.0,West,8.1,-,N/A,,Clear,270,2014-03-16 10:58:00
4:58 AM,51.4,12.9,22,30.31,10.0,SW,5.8,-,N/A,,Clear,220,2014-03-16 11:58:00
5:58 AM,50.9,12.7,22,30.32,10.0,Calm,Calm,-,N/A,,Clear,0,2014-03-16 12:58:00
6:58 AM,49.8,13.3,23,30.32,10.0,Calm,Calm,-,N/A,,Clear,0,2014-03-16 13:58:00
7:58 AM,49.6,14.4,24,30.35,10.0,Calm,Calm,-,N/A,,Clear,0,2014-03-16 14:58:00
8:58 AM,55.6,16.5,22,30.36,10.0,Calm,Calm,-,N/A,,Clear,0,2014-03-16 15:58:00
9:58 AM,62.2,13.1,15,30.35,10.0,SSW,2.3,-,N/A,,Clear,210,2014-03-16 16:58:00
10:58 AM,65.8,12.9,13,30.33,10.0,Calm,Calm,-,N/A,,Clear,0,2014-03-16 17:58:00
11:58 AM,70.9,12.0,10,30.30,10.0,Calm,Calm,-,N/A,,Clear,0,2014-03-16 18:58:00
12:58 PM,71.8,12.7,10,30.27,10.0,Variable,2.3,-,N/A,,Clear,0,2014-03-16 19:58:00
1:58 PM,75.0,11.8,9,30.21,10.0,Calm,Calm,-,N/A,,Clear,0,2014-03-16 20:58:00
2:58 PM,75.6,10.6,8,30.17,10.0,SE,3.5,-,N/A,,Clear,140,2014-03-16 21:58:00
3:58 PM,77.2,11.8,8,30.14,10.0,SSE,4.6,-,N/A,,Clear,150,2014-03-16 22:58:00
4:58 PM,78.1,12.6,8,30.11,10.0,SW,3.5,-,N/A,,Clear,220,2014-03-16 23:58:00
5:58 PM,77.5,13.8,9,30.09,10.0,SW,4.6,-,N/A,,Clear,230,2014-03-17 00:58:00
6:58 PM,76.8,13.3,9,30.08,10.0,SW,1.2,-,N/A,,Clear,220,2014-03-17 01:58:00
7:58 PM,70.0,18.7,14,30.08,10.0,NE,3.5,-,N/A,,Clear,50,2014-03-17 02:58:00
8:58 PM,66.4,17.8,16,30.06,10.0,North,6.9,-,N/A,,Clear,350,2014-03-17 03:58:00
9:58 PM,62.2,18.1,18,30.06,10.0,WSW,2.3,-,N/A,,Clear,250,2014-03-17 04:58:00
10:58 PM,57.7,17.2,21,30.05,10.0,South,1.2,-,N/A,,Clear,170,2014-03-17 05:58:00
11:58 PM,56.3,17.1,22,30.02,10.0,NNE,2.3,-,N/A,,Clear,30,2014-03-17 06:58:00